Simultaneous Nadir Overpasses (SNOs) Predictions

Prediction of SNOs between GOES-17 and NOAA-19 Satellite Orbit:

Table of predicted SNOs for the next 14.0 days since TLE Epoch: 9/2/2023
Index Date Time (GOES-17) GOES-17 Lat,Lon NOAA-19 Lat,Lon Distance(km) Time Diff (sec)
1 09/02/2023 03:57:15 0.00,-104.68 -0.70,-107.62 335.97 80
2 09/03/2023 03:45:10 0.00,-104.69 0.00,-104.69 0.07 80
3 09/04/2023 03:30:26 0.00,-104.69 0.70,-101.75 335.82 80
4 09/06/2023 15:50:20 0.00,-104.72 0.40,-106.47 199.94 80
5 09/07/2023 15:40:55 0.00,-104.72 -0.28,-103.54 135.86 80
6 09/08/2023 15:28:51 0.00,-104.73 -0.97,-100.60 471.68 80
7 09/10/2023 04:01:00 0.00,-104.70 -0.80,-108.31 411.25 80
8 09/11/2023 03:48:55 0.00,-104.70 -0.15,-105.36 75.24 80
9 09/12/2023 03:34:09 0.00,-104.70 0.51,-102.41 260.88 80
10 09/14/2023 15:54:05 -0.00,-104.74 0.56,-107.15 275.52 80
11 09/15/2023 15:44:41 0.00,-104.75 -0.14,-104.22 60.92 80
